• In Hungary
  • List of Countries
  • For 7 days
  • Water Temperature
  • Satellite Maps
  • Weather Map
  • News
  • Weather Widgets
  • user-avatar
    Login

    Hourly Weather Bortnovskiy

    Today, 19 June, Tuesday

    Time Temperature Precipitation Wind Pressure Humidity
    00:00 +18°C° 0 mm 1 mps 742 mmHg 82%
    01:00 +16°C° 0 mm 2 mps 742 mmHg 84%
    02:00 +16°C° 0 mm 2 mps 742 mmHg 85%
    03:00 +16°C° 0.3 mm 2 mps 742 mmHg 87%
    04:00 +17°C° 0.3 mm 2 mps 743 mmHg 88%
    05:00 +17°C° 0.3 mm 2 mps 743 mmHg 90%
    06:00 +18°C° 0.3 mm 2 mps 743 mmHg 89%
    07:00 +19°C° 0.3 mm 2 mps 743 mmHg 88%
    08:00 +21°C° 0.3 mm 3 mps 743 mmHg 87%
    09:00 +22°C° 0.5 mm 3 mps 742 mmHg 79%
    10:00 +25°C° 0.5 mm 3 mps 742 mmHg 72%
    11:00 +26°C° 0.5 mm 3 mps 742 mmHg 65%
    12:00 +27°C° 0.2 mm 3 mps 742 mmHg 62%
    13:00 +27°C° 0.2 mm 3 mps 742 mmHg 59%
    14:00 +28°C° 0.2 mm 3 mps 742 mmHg 56%
    15:00 +27°C° 0.2 mm 3 mps 741 mmHg 60%
    16:00 +27°C° 0.2 mm 3 mps 741 mmHg 64%
    17:00 +26°C° 0.2 mm 3 mps 741 mmHg 69%
    18:00 +25°C° 0.1 mm 3 mps 741 mmHg 75%
    19:00 +22°C° 0.1 mm 3 mps 741 mmHg 82%
    20:00 +20°C° 0.1 mm 3 mps 741 mmHg 88%
    21:00 +20°C° 0 mm 3 mps 741 mmHg 90%
    22:00 +19°C° 0 mm 3 mps 741 mmHg 93%
    23:00 +18°C° 0 mm 3 mps 741 mmHg 95%

    Tomorrow, 20 June, Wednesday

    Time Temperature Precipitation Wind Pressure Humidity
    00:00 +18°C° 0 mm 3 mps 741 mmHg 95%
    01:00 +18°C° 0 mm 3 mps 741 mmHg 96%
    02:00 +17°C° 0 mm 3 mps 741 mmHg 96%
    03:00 +17°C° 0 mm 3 mps 741 mmHg 95%
    04:00 +17°C° 0 mm 3 mps 741 mmHg 93%
    05:00 +18°C° 0 mm 3 mps 741 mmHg 92%
    06:00 +18°C° 0 mm 4 mps 742 mmHg 86%
    07:00 +19°C° 0 mm 4 mps 742 mmHg 79%
    08:00 +20°C° 0 mm 4 mps 742 mmHg 73%
    09:00 +21°C° 0 mm 4 mps 742 mmHg 67%
    10:00 +21°C° 0 mm 4 mps 743 mmHg 61%
    11:00 +22°C° 0 mm 4 mps 743 mmHg 55%
    12:00 +22°C° 0 mm 4 mps 743 mmHg 54%
    13:00 +23°C° 0 mm 4 mps 743 mmHg 52%
    14:00 +23°C° 0 mm 4 mps 743 mmHg 50%
    15:00 +23°C° 0 mm 4 mps 743 mmHg 54%
    16:00 +24°C° 0 mm 3 mps 742 mmHg 58%
    17:00 +24°C° 0 mm 3 mps 742 mmHg 62%
    18:00 +21°C° 0 mm 3 mps 742 mmHg 68%
    19:00 +19°C° 0 mm 3 mps 742 mmHg 75%
    20:00 +17°C° 0 mm 2 mps 742 mmHg 81%
    21:00 +16°C° 0 mm 2 mps 743 mmHg 84%
    22:00 +16°C° 0 mm 2 mps 743 mmHg 88%
    23:00 +15°C° 0 mm 2 mps 743 mmHg 91%

    Day after tomorrow, 21 June, Thursday

    Time Temperature Precipitation Wind Pressure Humidity
    00:00 +14°C° 0 mm 2 mps 743 mmHg 93%
    01:00 +14°C° 0 mm 2 mps 743 mmHg 94%
    02:00 +14°C° 0 mm 2 mps 743 mmHg 95%
    03:00 +14°C° 0 mm 2 mps 743 mmHg 94%
    04:00 +15°C° 0 mm 2 mps 743 mmHg 92%
    05:00 +15°C° 0 mm 2 mps 743 mmHg 91%
    06:00 +17°C° 0 mm 2 mps 743 mmHg 83%
    07:00 +19°C° 0 mm 2 mps 743 mmHg 75%
    08:00 +21°C° 0 mm 3 mps 743 mmHg 67%
    09:00 +22°C° 0 mm 3 mps 743 mmHg 63%
    10:00 +24°C° 0 mm 3 mps 743 mmHg 59%
    11:00 +25°C° 0 mm 3 mps 742 mmHg 54%
    12:00 +25°C° 0 mm 3 mps 742 mmHg 53%
    13:00 +26°C° 0 mm 3 mps 742 mmHg 52%
    14:00 +26°C° 0 mm 3 mps 742 mmHg 51%
    15:00 +26°C° 0 mm 2 mps 741 mmHg 53%
    16:00 +26°C° 0 mm 2 mps 741 mmHg 56%
    17:00 +26°C° 0 mm 2 mps 741 mmHg 59%
    18:00 +24°C° 0 mm 2 mps 741 mmHg 65%
    19:00 +22°C° 0 mm 1 mps 741 mmHg 71%
    20:00 +20°C° 0 mm 1 mps 741 mmHg 77%
    21:00 +19°C° 0 mm 1 mps 741 mmHg 79%
    22:00 +18°C° 0 mm 1 mps 741 mmHg 82%
    23:00 +16°C° 0 mm 1 mps 741 mmHg 84%

    22 June, Friday

    Time Temperature Precipitation Wind Pressure Humidity
    00:00 +16°C° 0 mm 2 mps 741 mmHg 85%
    01:00 +16°C° 0 mm 2 mps 740 mmHg 87%
    02:00 +15°C° 0 mm 2 mps 740 mmHg 88%
    03:00 +16°C° 0 mm 2 mps 740 mmHg 87%
    04:00 +16°C° 0 mm 2 mps 740 mmHg 87%
    05:00 +17°C° 0 mm 3 mps 739 mmHg 86%
    06:00 +19°C° 0 mm 3 mps 739 mmHg 80%
    07:00 +21°C° 0 mm 4 mps 739 mmHg 75%
    08:00 +23°C° 0 mm 5 mps 739 mmHg 69%
    09:00 +25°C° 0 mm 5 mps 739 mmHg 66%
    10:00 +26°C° 0 mm 6 mps 739 mmHg 63%
    11:00 +26°C° 0 mm 6 mps 739 mmHg 60%
    12:00 +27°C° 0 mm 6 mps 738 mmHg 60%
    13:00 +27°C° 0 mm 5 mps 738 mmHg 60%
    14:00 +28°C° 0 mm 5 mps 737 mmHg 60%
    15:00 +27°C° 0.1 mm 5 mps 737 mmHg 63%
    16:00 +27°C° 0.1 mm 4 mps 736 mmHg 66%
    17:00 +27°C° 0.1 mm 4 mps 736 mmHg 70%
    18:00 +25°C° 0.4 mm 3 mps 736 mmHg 77%
    19:00 +24°C° 0.4 mm 3 mps 736 mmHg 84%
    20:00 +21°C° 0.4 mm 3 mps 736 mmHg 91%
    21:00 +20°C° 0.1 mm 3 mps 736 mmHg 92%
    22:00 +20°C° 0.1 mm 3 mps 736 mmHg 94%
    23:00 +19°C° 0.1 mm 3 mps 736 mmHg 95%

    23 June, Saturday

    Time Temperature Precipitation Wind Pressure Humidity
    00:00 +19°C° 0.7 mm 3 mps 736 mmHg 95%
    01:00 +19°C° 0.7 mm 3 mps 736 mmHg 96%
    02:00 +18°C° 0.7 mm 3 mps 736 mmHg 96%
    03:00 +18°C° 0.7 mm 2 mps 736 mmHg 96%
    04:00 +18°C° 0.7 mm 2 mps 736 mmHg 96%
    05:00 +18°C° 0.7 mm 2 mps 736 mmHg 96%
    06:00 +18°C° 0.2 mm 3 mps 736 mmHg 94%
    07:00 +18°C° 0.2 mm 3 mps 736 mmHg 93%
    08:00 +19°C° 0.2 mm 3 mps 736 mmHg 91%
    09:00 +18°C° 0.4 mm 3 mps 736 mmHg 90%
    10:00 +18°C° 0.4 mm 4 mps 736 mmHg 88%
    11:00 +18°C° 0.4 mm 4 mps 736 mmHg 87%
    12:00 +17°C° 0.4 mm 4 mps 737 mmHg 87%
    13:00 +15°C° 0.4 mm 4 mps 737 mmHg 88%
    14:00 +14°C° 0.4 mm 5 mps 737 mmHg 88%
    15:00 +14°C° 0.1 mm 5 mps 737 mmHg 86%
    16:00 +14°C° 0.1 mm 5 mps 737 mmHg 84%
    17:00 +13°C° 0.1 mm 4 mps 737 mmHg 82%
    18:00 +13°C° 0.2 mm 4 mps 737 mmHg 85%
    19:00 +12°C° 0.2 mm 4 mps 737 mmHg 88%
    20:00 +12°C° 0.2 mm 4 mps 738 mmHg 91%
    21:00 +11°C° 0.3 mm 4 mps 738 mmHg 92%
    22:00 +11°C° 0.3 mm 4 mps 738 mmHg 93%
    23:00 +11°C° 0.3 mm 4 mps 738 mmHg 94%

    24 June, Sunday

    Time Temperature Precipitation Wind Pressure Humidity
    00:00 +10°C° 0 mm 3 mps 739 mmHg 93%
    01:00 +10°C° 0 mm 3 mps 739 mmHg 93%
    02:00 +10°C° 0 mm 2 mps 739 mmHg 93%
    03:00 +10°C° 0 mm 2 mps 740 mmHg 92%
    04:00 +10°C° 0 mm 2 mps 740 mmHg 92%
    05:00 +10°C° 0 mm 2 mps 740 mmHg 91%
    06:00 +13°C° 0 mm 2 mps 740 mmHg 86%
    07:00 +14°C° 0 mm 2 mps 741 mmHg 81%
    08:00 +16°C° 0 mm 2 mps 741 mmHg 76%
    09:00 +18°C° 0 mm 2 mps 741 mmHg 69%
    10:00 +19°C° 0 mm 3 mps 741 mmHg 61%
    11:00 +21°C° 0 mm 3 mps 742 mmHg 54%
    12:00 +21°C° 0 mm 3 mps 742 mmHg 52%
    13:00 +22°C° 0 mm 3 mps 742 mmHg 50%
    14:00 +22°C° 0 mm 3 mps 742 mmHg 48%
    15:00 +22°C° 0 mm 3 mps 742 mmHg 52%
    16:00 +23°C° 0 mm 2 mps 742 mmHg 56%
    17:00 +21°C° 0 mm 2 mps 742 mmHg 60%
    18:00 +19°C° 0 mm 2 mps 742 mmHg 66%
    19:00 +18°C° 0 mm 2 mps 742 mmHg 71%
    20:00 +16°C° 0 mm 2 mps 742 mmHg 77%
    21:00 +15°C° 0 mm 2 mps 743 mmHg 81%
    22:00 +14°C° 0 mm 2 mps 743 mmHg 85%
    23:00 +13°C° 0 mm 2 mps 743 mmHg 89%
    Show more